Simultaneous Nadir Overpasses (SNOs) Predictions

Prediction of SNOs between METOP-B and TERRA Satellite Orbit:

Table of predicted SNOs for the next 14.0 days since TLE Epoch: 6/25/2016
Index Date (METOP-B) Time (METOP-B) Lat,Lon (METOP-B) SZA (METOP-B ) Date (TERRA) Time (TERRA) Lat,Lon (TERRA) SZA (TERRA ) Distance(km) Time Diff (sec)
1 06/26/2016 04:06:33 81.27, 164.86 60.71 06/26/2016 04:07:15 81.26, 164.78 60.71 1.67 42
2 06/26/2016 04:57:12 -81.28, -27.23 119.23 06/26/2016 04:56:41 -81.28, -27.25 119.24 0.38 31
3 06/28/2016 23:40:58 81.27,-128.55 60.84 06/28/2016 23:41:30 81.27,-128.62 60.85 1.14 32
4 06/29/2016 00:31:38 -81.27, 38.99 119.14 06/29/2016 00:30:57 -81.27, 39.00 119.16 0.73 41
5 07/01/2016 19:15:23 81.27, -61.98 61.03 07/01/2016 19:15:45 81.28, -62.04 61.03 1.16 22
6 07/01/2016 20:06:03 -81.28, 105.59 118.95 07/01/2016 20:05:12 -81.28, 105.60 118.97 0.17 51
7 07/04/2016 14:49:49 81.27, 4.19 61.22 07/04/2016 14:50:01 81.26, 4.13 61.21 1.44 12
8 07/04/2016 15:40:27 -81.28, 172.18 118.70 07/04/2016 15:39:26 -81.28, 172.17 118.73 0.58 61
9 07/07/2016 10:24:13 81.27, 70.75 61.51 07/07/2016 10:24:15 81.27, 70.65 61.50 1.70 2




NCC Satellite Simultaneous Nadir Overpasses (SNOs) Prediction Service
